Probability
0 0 0 0 0 0 0 0 0 0 0 0 0 0 0 0 0 0 0 0 0 0 0 0 0 0 0 0 0 0 0 0 0 0 0 0 0 0 0 0 0 0 0 0
0 0 0 0 0 0 0 0 0 0 0 0 0 0 0 0 0 0 0 0 0 0 0 0 0 0 0 0 0 0 0 0 0 0 0 0 0 0 0 0 0 0 0 0
0 0 0 0 0 0 0 0 0 0 0 0 0 0 0 0 0 0 0 0 0 0 0 0 0 0 0 0 0 0 0 0 0 0 0 0 0 0 0 0 0 0 0 0
0 0 0 0 0 0 0 0 0 0 0 0 0 0 0 0 0 0 0 0 0 0 0 0 0 0 0 0 0 0 0 0 0 0 0 0 0 0 0 0 0 0 0 0
0 0 0 0 0 0 0 0 0 0 0 0 0 0 0 0 0 0 0 0 0 0 0 0 0 0 0 0 0 0 0 0 0 0 0 0 0 0 0 0 0 0 0 0
0 0 0 0 0 0 0 0 0 0 0 0 0 0 0 0 0 0 0 0 0 0 0 0 0 0 0 0 0 0 0 0 0 0 0 0 0 0 0 0 0 0 0 0
0 0 0 0 0 0 0 0 0 0 0 0 0 0 0 0 0 0 0 0 0 0 0 0 0 0 0 0 0 0 0 0 0 0 0 0 0 0 0 0 0 0 0 0
0 0 0 0 0 0 0 0 0 0 0 0 0 0 0 0 0 0 0 0 0 0 0 0 0 0 0 0 0 0 0 0 0 0 0 0 0 0 0 0 0 0 0 0
0 0 0 0 0 0 0 0 0 0 0 0 0 0 0 0 0 0 0 0 0 0 0 0 0 0 0 0 0 0 0 0 0 0 0 0 0 0 0 0 0 0 0 0
0 0 0 0 0 0 0 0 0 0 0 0 0 0 0 0 0 0 0 0 0 0 0 0 0 0 0 0 0 0 0 0 0 0 0 0 0 0 0 0 0 0 0 0
0 0 0 0 0 0 0 0 0 0 0 0 0 0 0 0 0 0 0 0 0 0 0 0 0 0 0 0 0 0 0 0 0 0 0 0 0 0 0 0 0 0 0 0
0 0 0 0 0 0 0 0 0 0 0 0 0 0 0 0 0 0 0 0 0 0 0 0 0 0 0 0 0 0 0 0 0 0 0 0 0 0 0 0 0 0 0 0
0 0 0 0 0 0 0 0 0 0 0 0 0 0 0 0 0 0 0 0 0 0 0 0 0 0 0 0 0 0 0 0 0 0 0 0 0 0 0 0 0 0 0 0
0 0 0 0 0 0 0 0 0 0 0 0 0 0 0 0 0 0 0 0 0 0 0 0 0 0 0 0 0 0 0 0 0 0 0 0 0 0 0 0 0 0 0 0
0 0 0 0 0 0 0 0 0 0 0 0 0 0 0 0 0 0 0 0 0 0 0 0 0 0 0 0 0 0 0 0 0 0 0 0 0 0 0 0 0 0 0 0
0 0 0 0 0 0 0 0 0 0 0 0 0 0 0 0 0 0 0 0 0 0 0 0 0 0 0 0 0 0 0 0 0 0 0 0 0 0 0 0 0 0 0 0
0 0 0 0 0 0 0 0 0 0 0 0 0 0 0 0 0 0 0 0 0 0 0 0 0 0 0 0 0 0 0 0 0 0 0 0 0 0 0 0 0 0 0 0
0 0 0 0 0 0 0 0 0 0 0 0 0 0 0 0 0 0 0 0 0 0 0 0 0 0 0 0 0 0 0 0 0 0 0 0 0 0 0 0 0 0 0 0
0 0 0 0 0 0 0 0 0 0 0 0 0 0 0 0 0 0 0 0 0 0 0 0 0 0 0 0 0 0 0 0 0 0 0 0 0 0 0 0 0 0 0 0
0 0 0 0 0 0 0 0 0 0 0 0 0 0 0 0 0 0 0 0 0 0 0 0 0 0 0 0 0 0 0 0 0 0 0 0 0 0 0 0 0 0 0 0
0 0 0 0 0 0 0 0 0 0 0 0 0 0 0 0 0 0 0 0 0 0 0 0 0 0 0 0 0 0 0 0 0 0 0 0 0 0 0 0 0 0 0 0
0 0 0 0 0 0 0 0 0 0 0 0 0 0 0 0 0 0 0 0 0 0 0 0 0 0 0 0 0 0 0 0 0 0 0 0 0 0 0 0 0 0 0 0
0 0 0 0 0 0 0 0 0 0 0 0 0 0 0 0 0 0 0 0 0 0 0 0 0 0 0 0 0 0 0 0 0 0 0 0 0 0 0 0 0 0 0 0
0 0 0 0 0 0 0 0 0 0 0 0 0 0 0 0 0 0 0 0 0 0 0 0 0 0 0 0 0 0 0 0 0 0 0 0 0 0 0 0 0 0 0 0
0 0 0 0 0 0 0 0 0 0 0 0 0 0 0 0 0 0 0 0 0 0 0 0 0 0 0 0 0 0 0 0 0 0 0 0 0 0 0 0 0 0 0 0
0 0 0 0 0 0 0 0 0 0 0 0 0 0 0 0 0 0 0 0 0 0 0 0 0 0 0 0 0 0 0 0 0 0 0 0 0 0 0 0 0 0 0 0
Wind_Speed
3 4 7 13 14 8 5 5 6 7 5 3 7 9 10 9 4 3 7 8 10 9 7 9 11 12 15 17 17 17 16 14 10 6 4 5 5 5 6 6 7 5 3 1
3 7 12 7 5 5 5 6 7 7 5 4 6 8 4 6 3 5 9 9 8 8 9 12 12 13 15 15 15 16 16 15 13 7 4 4 4 4 5 7 9 10 8 5
11 8 6 6 6 7 7 8 7 6 4 4 4 6 1 4 8 11 10 8 8 9 8 8 11 12 13 15 14 13 14 15 14 11 7 6 6 5 7 9 8 10 10 9
7 6 3 5 7 8 7 7 7 5 2 4 1 5 5 2 5 7 7 6 6 6 7 8 9 11 12 10 10 12 13 14 13 12 11 12 9 7 6 5 6 8 10 11
7 4 6 8 8 8 7 3 4 3 3 2 3 4 7 4 4 4 4 5 5 5 6 7 8 8 8 8 8 9 11 13 12 12 11 10 9 6 4 6 9 9 9 10
5 3 5 6 1 4 4 4 5 5 4 4 6 7 8 5 7 9 7 6 5 5 5 5 6 6 7 7 8 8 10 11 10 10 10 10 9 8 8 9 9 7 6 6
3 3 3 3 4 2 4 5 2 3 1 8 2 5 7 4 4 12 13 8 6 5 5 4 5 6 6 7 7 7 9 9 8 9 9 8 8 7 8 6 6 6 5 5
5 5 5 5 7 7 6 8 7 6 6 5 4 7 3 4 5 10 9 8 6 5 5 5 4 5 5 6 6 6 7 7 7 7 7 6 6 5 4 5 4 5 4 4
8 6 0 2 2 9 6 5 6 6 1 3 7 4 0 3 5 6 7 7 7 6 6 5 5 4 4 4 4 4 4 4 5 5 5 5 5 5 5 5 4 4 4 5
9 5 3 1 2 1 4 7 5 5 5 6 6 6 7 10 10 9 9 9 8 7 6 6 5 4 4 3 2 2 2 1 1 2 2 2 3 3 4 4 5 5 6 6
6 7 2 1 7 8 5 4 5 5 5 6 6 9 4 14 16 15 12 10 9 8 7 6 5 4 4 3 2 2 2 2 2 3 3 3 3 4 4 4 5 5 5 6
5 5 4 6 4 3 6 8 9 7 7 6 5 8 2 6 11 11 11 9 8 7 6 5 5 4 3 3 3 3 3 3 4 4 4 4 4 4 5 6 6 6 7 7
8 7 2 4 2 2 4 4 6 5 5 7 7 8 2 4 6 7 8 8 7 7 6 4 4 4 4 4 3 3 4 4 4 4 4 5 5 6 6 7 7 7 8 8
7 7 10 12 8 6 5 5 5 6 6 7 9 8 4 5 6 6 6 7 7 6 5 5 4 4 4 4 4 4 5 4 4 4 4 6 7 7 7 8 8 8 8 9
6 7 6 4 3 4 6 7 7 8 8 9 8 9 10 9 9 8 7 7 6 6 5 5 4 4 3 4 4 4 4 4 4 4 5 6 7 7 7 8 9 9 9 10
3 5 4 1 1 2 7 10 9 10 8 9 10 15 8 4 5 6 7 7 7 5 5 4 4 4 5 5 4 4 3 3 3 4 5 6 7 8 8 9 10 11 12 12
6 8 6 4 2 4 12 12 11 9 9 10 15 15 3 4 8 9 8 7 6 5 4 5 5 5 5 4 3 2 2 2 3 4 5 6 6 8 9 11 12 13 14 15
9 8 5 4 4 10 11 1 6 9 11 10 8 5 4 6 6 6 6 6 6 5 5 5 5 4 2 1 1 1 2 3 4 4 4 4 6 8 10 12 14 15 15 16
4 9 6 6 6 11 12 6 6 8 9 7 9 6 4 5 4 1 4 6 7 6 6 5 4 3 2 2 1 2 2 3 4 4 5 6 7 8 11 13 15 15 15 16
1 4 7 7 7 12 11 2 3 4 7 6 7 8 7 8 4 6 7 6 6 5 4 3 3 3 3 2 2 2 3 3 4 5 7 8 7 7 11 14 15 14 14 16
5 5 9 9 9 13 9 4 4 6 10 5 8 8 10 10 9 6 7 7 6 5 4 4 4 3 3 3 2 3 3 4 5 6 8 9 9 10 12 13 12 13 14 15
12 10 9 7 8 15 7 9 10 11 4 6 8 9 10 9 7 7 7 7 6 5 4 4 4 3 3 3 2 3 4 5 5 6 9 9 9 10 10 10 12 12 13 15
10 12 10 13 12 4 8 10 9 7 7 8 8 8 10 9 8 8 8 7 6 5 5 4 4 2 2 2 2 3 5 6 6 6 8 9 9 9 9 10 12 11 11 11
6 5 5 5 8 6 7 7 5 7 9 9 9 9 9 10 10 9 7 6 6 5 5 4 3 2 1 0 1 3 6 6 6 7 9 9 9 9 9 9 9 10 10 11
10 8 7 6 6 4 7 11 12 10 8 8 8 9 11 11 11 9 7 6 6 5 4 3 2 1 1 2 3 4 5 5 6 8 9 9 9 9 9 9 9 12 12 14
8 10 10 10 10 9 9 11 13 12 12 12 11 10 9 10 10 8 6 6 6 5 4 2 1 2 2 3 5 5 5 5 6 9 9 8 8 8 9 10 12 19 22 27
Wind_Direction
137 121 196 205 201 200 187 203 239 255 264 263 254 261 271 286 300 126 110 95 81 66 45 34 31 32 39 39 40 39 38 30 29 31 34 41 41 34 31 26 23 18 10 18
104 232 225 208 195 213 228 248 259 274 271 242 260 271 292 351 13 101 109 100 90 76 52 43 39 39 43 43 41 42 40 35 32 29 30 44 50 42 35 27 24 18 11 5
187 223 205 183 200 207 222 219 229 242 303 312 297 300 309 44 63 73 76 83 80 79 68 52 47 44 45 44 41 46 44 42 37 33 37 37 36 29 24 18 15 12 15 14
228 245 202 194 213 194 239 223 209 210 205 278 303 282 270 153 86 79 75 69 69 66 66 61 56 52 48 42 41 48 48 46 40 40 47 53 51 42 20 7 11 13 18 18
231 221 199 214 223 187 220 206 185 191 189 255 272 237 268 158 156 141 116 99 85 73 70 65 58 57 51 42 44 46 50 49 43 44 47 53 51 41 23 21 21 18 15 18
241 240 200 203 178 175 155 80 51 55 87 250 221 197 262 215 191 158 149 134 120 103 85 73 63 59 54 45 44 45 51 48 40 44 46 49 47 36 31 24 19 12 7 10
253 246 232 155 125 91 121 106 24 320 283 245 242 212 247 317 166 154 153 150 144 132 118 102 83 69 60 52 46 45 50 45 35 39 41 40 40 37 33 21 14 9 3 359
196 242 215 186 177 172 179 157 173 209 227 270 294 238 285 358 85 117 136 146 148 145 138 126 113 95 79 67 56 51 48 42 32 33 31 30 31 30 22 15 10 4 353 338
187 230 178 181 187 151 158 189 169 141 136 266 263 270 347 96 108 132 149 158 167 166 158 145 132 117 106 92 77 70 61 45 29 24 18 15 12 13 3 355 354 345 336 334
167 200 212 201 122 47 164 149 118 147 192 242 264 244 216 181 188 182 184 186 186 179 169 159 150 141 133 129 122 109 107 100 9 349 340 333 333 333 330 333 331 325 322 326
160 175 190 173 196 187 148 156 157 164 177 185 246 258 220 186 185 186 194 194 188 184 177 172 166 160 155 153 162 181 207 221 242 251 260 277 283 285 288 288 286 288 294 302
149 147 204 234 249 230 193 185 166 183 217 205 221 263 326 176 174 179 189 191 187 181 176 174 172 171 175 190 210 223 233 239 246 248 254 263 270 274 275 273 273 273 276 277
149 142 164 316 286 226 221 211 196 181 176 199 214 256 28 106 152 179 183 181 176 172 171 172 177 187 203 218 232 244 249 251 256 257 264 274 278 279 278 278 280 279 278 279
150 164 189 206 206 184 196 198 174 163 198 220 226 238 212 201 200 202 190 177 171 173 177 181 193 207 219 233 245 256 267 268 272 275 278 281 284 285 286 287 288 286 284 284
151 196 209 214 151 174 206 207 188 197 202 213 231 233 234 211 212 202 182 168 164 172 182 189 193 206 224 241 252 258 266 278 288 294 292 289 294 298 299 300 299 298 296 293
144 168 149 216 37 238 262 241 203 216 220 228 245 258 249 197 163 163 164 164 173 185 197 200 202 215 231 240 250 263 278 298 315 306 300 305 311 314 316 316 316 313 310 307
152 140 155 213 54 27 263 237 207 211 206 201 231 249 232 181 179 176 174 174 180 189 195 204 218 230 237 244 252 271 301 324 324 313 313 324 333 331 330 327 323 317 314 309
154 147 145 134 110 229 243 137 205 223 238 220 229 244 207 194 171 169 171 173 181 190 205 221 227 229 221 181 88 358 338 332 324 320 329 347 344 333 327 323 317 313 310 306
150 143 137 151 207 266 285 249 195 198 251 221 214 217 172 128 107 227 205 180 186 204 214 218 210 188 148 112 47 356 337 335 326 327 336 341 337 327 321 313 309 307 305 301
99 141 149 157 183 229 246 212 185 127 267 233 185 178 162 141 171 235 214 201 208 215 208 186 149 132 126 93 44 357 336 330 327 334 329 326 323 315 307 303 302 300 298 296
148 181 198 195 215 247 245 196 122 174 239 210 177 176 172 185 203 204 194 206 212 205 177 140 127 123 113 80 38 348 331 324 330 326 318 314 310 301 295 293 294 295 294 294
170 176 197 177 209 243 196 155 188 214 194 176 183 185 187 204 213 211 212 217 211 185 157 135 124 120 105 79 41 336 317 322 323 318 310 301 292 289 291 287 290 290 290 292
199 192 186 194 214 226 171 193 207 179 181 191 191 198 196 206 219 222 221 215 195 173 154 129 127 135 124 89 41 308 312 318 315 305 294 289 286 282 284 285 291 292 289 289
233 174 165 224 253 235 222 231 223 197 200 199 196 199 198 211 222 222 215 199 180 162 148 136 137 159 174 124 315 278 300 310 301 294 295 296 296 294 291 289 290 290 290 289
212 175 179 217 243 241 239 229 228 221 219 220 216 211 209 213 222 217 206 189 172 156 139 140 156 219 249 285 286 287 293 297 295 295 298 302 299 295 296 292 287 288 280 280
200 180 179 210 208 199 218 222 220 221 224 224 223 230 224 214 217 203 188 167 154 150 146 160 190 255 275 286 287 285 286 287 292 303 306 305 303 300 299 299 298 296 298 299